Stündliche Wetter Bremen

Heute, 11 April, Sonntag

Zeit Temperatur Niederschläge Wind Luftdruck Luftfeuchtigkeit
00:00 +3°C° 1.3 mm 5 m/S 756 mmHg 96%
01:00 +5°C° 0 mm 5 m/S 755 mmHg 96%
02:00 +5°C° 0.8 mm 4 m/S 754 mmHg 97%
03:00 +6°C° 0.8 mm 4 m/S 754 mmHg 97%
04:00 +6°C° 0.8 mm 4 m/S 753 mmHg 97%
05:00 +6°C° 0.1 mm 4 m/S 753 mmHg 97%
06:00 +6°C° 0.1 mm 4 m/S 754 mmHg 97%
07:00 +7°C° 0 mm 4 m/S 753 mmHg 97%
08:00 +6°C° 0 mm 4 m/S 754 mmHg 96%
09:00 +5°C° 0 mm 4 m/S 754 mmHg 96%
10:00 +5°C° 0 mm 5 m/S 755 mmHg 95%
11:00 +5°C° 0 mm 5 m/S 755 mmHg 91%
12:00 +5°C° 0 mm 5 m/S 756 mmHg 86%
13:00 +5°C° 0 mm 5 m/S 756 mmHg 82%
14:00 +3°C° 0 mm 5 m/S 757 mmHg 80%
15:00 +3°C° 0 mm 5 m/S 757 mmHg 78%
16:00 +3°C° 0 mm 6 m/S 758 mmHg 76%
17:00 +3°C° 0 mm 5 m/S 758 mmHg 77%
18:00 +2°C° 0 mm 5 m/S 759 mmHg 78%
19:00 +2°C° 0 mm 5 m/S 760 mmHg 79%
20:00 +2°C° 0 mm 5 m/S 760 mmHg 77%
21:00 +2°C° 0 mm 5 m/S 761 mmHg 74%
22:00 +2°C° 0 mm 5 m/S 762 mmHg 72%
23:00 +1°C° 0 mm 5 m/S 762 mmHg 73%

Morgen, 12 April, Montag

Zeit Temperatur Niederschläge Wind Luftdruck Luftfeuchtigkeit
00:00 +1°C° 0 mm 4 m/S 763 mmHg 74%
01:00 +1°C° 0 mm 4 m/S 763 mmHg 75%
02:00 +1°C° 0 mm 3 m/S 764 mmHg 79%
03:00 0°C° 0 mm 3 m/S 764 mmHg 84%
04:00 -1°C° 0 mm 3 m/S 764 mmHg 89%
05:00 0°C° 0 mm 3 m/S 765 mmHg 86%
06:00 0°C° 0 mm 3 m/S 765 mmHg 83%
07:00 +1°C° 0 mm 3 m/S 766 mmHg 80%
08:00 +2°C° 0 mm 3 m/S 766 mmHg 73%
09:00 +4°C° 0 mm 3 m/S 766 mmHg 67%
10:00 +5°C° 0 mm 4 m/S 767 mmHg 61%
11:00 +6°C° 0.1 mm 4 m/S 767 mmHg 55%
12:00 +7°C° 0.1 mm 4 m/S 767 mmHg 50%
13:00 +8°C° 0.1 mm 5 m/S 767 mmHg 44%
14:00 +8°C° 0 mm 5 m/S 767 mmHg 46%
15:00 +7°C° 0 mm 6 m/S 767 mmHg 47%
16:00 +7°C° 0 mm 6 m/S 767 mmHg 49%
17:00 +6°C° 0.1 mm 5 m/S 767 mmHg 56%
18:00 +4°C° 0.1 mm 4 m/S 768 mmHg 64%
19:00 +3°C° 0.1 mm 3 m/S 768 mmHg 72%
20:00 +2°C° 0 mm 3 m/S 768 mmHg 76%
21:00 +1°C° 0 mm 3 m/S 769 mmHg 81%
22:00 0°C° 0 mm 3 m/S 769 mmHg 86%
23:00 -1°C° 0 mm 3 m/S 769 mmHg 88%

übermorgen, 13 April, Dienstag

Zeit Temperatur Niederschläge Wind Luftdruck Luftfeuchtigkeit
00:00 -1°C° 0 mm 3 m/S 770 mmHg 90%
01:00 -1°C° 0 mm 3 m/S 770 mmHg 92%
02:00 -1°C° 0 mm 3 m/S 770 mmHg 93%
03:00 -2°C° 0 mm 3 m/S 770 mmHg 94%
04:00 -2°C° 0 mm 3 m/S 770 mmHg 95%
05:00 -1°C° 0 mm 3 m/S 771 mmHg 91%
06:00 0°C° 0 mm 3 m/S 771 mmHg 88%
07:00 +1°C° 0 mm 3 m/S 771 mmHg 85%
08:00 +3°C° 0 mm 4 m/S 771 mmHg 76%
09:00 +3°C° 0 mm 5 m/S 772 mmHg 67%
10:00 +6°C° 0 mm 5 m/S 772 mmHg 57%
11:00 +7°C° 0.1 mm 5 m/S 772 mmHg 54%
12:00 +7°C° 0.1 mm 6 m/S 772 mmHg 51%
13:00 +8°C° 0.1 mm 6 m/S 772 mmHg 47%
14:00 +7°C° 0.1 mm 6 m/S 772 mmHg 48%
15:00 +7°C° 0.1 mm 6 m/S 772 mmHg 49%
16:00 +7°C° 0.1 mm 6 m/S 772 mmHg 49%
17:00 +6°C° 0 mm 5 m/S 772 mmHg 58%
18:00 +4°C° 0 mm 4 m/S 772 mmHg 66%
19:00 +3°C° 0 mm 3 m/S 772 mmHg 74%
20:00 +2°C° 0 mm 3 m/S 772 mmHg 80%
21:00 +1°C° 0 mm 3 m/S 773 mmHg 85%
22:00 +1°C° 0 mm 2 m/S 773 mmHg 91%
23:00 -1°C° 0 mm 2 m/S 773 mmHg 92%

14 April, Mittwoch

Zeit Temperatur Niederschläge Wind Luftdruck Luftfeuchtigkeit
00:00 -1°C° 0 mm 2 m/S 773 mmHg 92%
01:00 -1°C° 0 mm 2 m/S 773 mmHg 93%
02:00 -1°C° 0 mm 2 m/S 772 mmHg 93%
03:00 -1°C° 0 mm 2 m/S 772 mmHg 93%
04:00 -2°C° 0 mm 2 m/S 772 mmHg 93%
05:00 -1°C° 0 mm 2 m/S 772 mmHg 90%
06:00 +1°C° 0 mm 2 m/S 773 mmHg 88%
07:00 +2°C° 0 mm 2 m/S 773 mmHg 85%
08:00 +3°C° 0.1 mm 2 m/S 773 mmHg 76%
09:00 +4°C° 0.1 mm 3 m/S 773 mmHg 66%
10:00 +7°C° 0.1 mm 3 m/S 772 mmHg 57%
11:00 +6°C° 0.1 mm 4 m/S 772 mmHg 54%
12:00 +7°C° 0.1 mm 4 m/S 772 mmHg 51%
13:00 +7°C° 0.1 mm 5 m/S 772 mmHg 49%
14:00 +7°C° 0 mm 5 m/S 772 mmHg 49%
15:00 +7°C° 0 mm 5 m/S 771 mmHg 49%
16:00 +7°C° 0 mm 5 m/S 771 mmHg 50%
17:00 +5°C° 0 mm 4 m/S 771 mmHg 57%
18:00 +4°C° 0 mm 4 m/S 771 mmHg 65%
19:00 +3°C° 0 mm 4 m/S 772 mmHg 72%
20:00 +2°C° 0 mm 3 m/S 772 mmHg 79%
21:00 +1°C° 0 mm 3 m/S 772 mmHg 86%
22:00 0°C° 0 mm 3 m/S 772 mmHg 93%
23:00 -1°C° 0 mm 2 m/S 772 mmHg 94%

15 April, Donnerstag

Zeit Temperatur Niederschläge Wind Luftdruck Luftfeuchtigkeit
00:00 -1°C° 0 mm 2 m/S 772 mmHg 94%
01:00 -1°C° 0 mm 2 m/S 772 mmHg 95%
02:00 -1°C° 0 mm 2 m/S 772 mmHg 93%
03:00 -2°C° 0 mm 2 m/S 773 mmHg 92%
04:00 -2°C° 0 mm 2 m/S 773 mmHg 91%
05:00 -1°C° 0 mm 2 m/S 773 mmHg 86%
06:00 +1°C° 0 mm 2 m/S 773 mmHg 82%
07:00 +2°C° 0 mm 2 m/S 773 mmHg 77%
08:00 +3°C° 0 mm 2 m/S 773 mmHg 71%
09:00 +4°C° 0 mm 3 m/S 773 mmHg 65%
10:00 +6°C° 0 mm 4 m/S 773 mmHg 59%
11:00 +6°C° 0 mm 4 m/S 773 mmHg 56%
12:00 +7°C° 0 mm 4 m/S 773 mmHg 52%
13:00 +8°C° 0 mm 5 m/S 773 mmHg 48%
14:00 +8°C° 0 mm 5 m/S 773 mmHg 50%
15:00 +8°C° 0 mm 5 m/S 773 mmHg 51%
16:00 +8°C° 0 mm 5 m/S 772 mmHg 53%
17:00 +7°C° 0 mm 5 m/S 773 mmHg 57%
18:00 +6°C° 0 mm 4 m/S 773 mmHg 60%
19:00 +5°C° 0 mm 4 m/S 773 mmHg 63%
20:00 +4°C° 0 mm 4 m/S 773 mmHg 67%
21:00 +4°C° 0 mm 3 m/S 773 mmHg 72%
22:00 +3°C° 0 mm 3 m/S 773 mmHg 76%
23:00 +2°C° 0 mm 3 m/S 773 mmHg 78%

16 April, Freitag

Zeit Temperatur Niederschläge Wind Luftdruck Luftfeuchtigkeit
00:00 +2°C° 0 mm 3 m/S 773 mmHg 81%
01:00 +2°C° 0 mm 3 m/S 773 mmHg 83%
02:00 +2°C° 0 mm 3 m/S 773 mmHg 84%
03:00 +1°C° 0 mm 3 m/S 773 mmHg 86%
04:00 +1°C° 0 mm 3 m/S 773 mmHg 87%
05:00 0°C° 0 mm 4 m/S 773 mmHg 84%
06:00 +1°C° 0 mm 4 m/S 773 mmHg 82%
07:00 +1°C° 0 mm 4 m/S 773 mmHg 80%
08:00 +4°C° 0 mm 4 m/S 773 mmHg 72%
09:00 +6°C° 0 mm 5 m/S 773 mmHg 65%
10:00 +7°C° 0 mm 6 m/S 773 mmHg 57%
11:00 +8°C° 0 mm 6 m/S 773 mmHg 54%
12:00 +9°C° 0 mm 6 m/S 772 mmHg 52%
13:00 +10°C° 0 mm 6 m/S 772 mmHg 49%
14:00 +10°C° 0 mm 6 m/S 772 mmHg 50%
15:00 +10°C° 0 mm 6 m/S 772 mmHg 51%
16:00 +10°C° 0 mm 7 m/S 772 mmHg 52%
17:00 +8°C° 0 mm 6 m/S 772 mmHg 55%
18:00 +7°C° 0 mm 6 m/S 772 mmHg 58%
19:00 +5°C° 0 mm 6 m/S 772 mmHg 62%
20:00 +5°C° 0 mm 5 m/S 772 mmHg 65%
21:00 +3°C° 0 mm 5 m/S 772 mmHg 68%
22:00 +3°C° 0 mm 4 m/S 772 mmHg 71%
23:00 +1°C° 0 mm 4 m/S 772 mmHg 76%
Mehr zeigen

Wir brauchen deine Erlaubnis

Meteoprog und unser Service Anbieter werden persönliche Daten aufbewahren, so wie Cookies, Geräte Bezeichnung oder ähnliche Technologien von deinem Gerät und Prozess, so wie Persönliche Daten Inhalte und Werbungen, genauso wie social Media und den Verkehr zu analysieren.

  • Aufbewahrung und/oder Zugang zu deiner Geräte Informationen.

    Cookies, Geräte Bezeichnung oder andere Informationen, können aufbewahrt oder Zugang zu deinem Gerät erhalten, für den Grund, der oben angegeben wird.

  • Personalisierte Werbung und Inhalte, Messungen, Einblick in das Publikum und Produkt Entwicklung.

    Werbungen und Inhalte können personalisiert werden, basierend auf ein Profil. Mehr Daten können besser personalisierte Werbungen und Inhalte hinzufügen. Werbung und Inhalte können gezeigt und gemessen werden. Einblicke über das Publikum, welche die Werbung gesehen haben und den Inhalt, können abgeleitet werden. So wie Daten können genutzt werden, um es zu verbessern oder die Benutzer Erfahrung zu verbessern das System und die Software.

Wenn du “Ich stimme zu” klickst, erlaubst du uns, die Cookies zu benutzen die Geräte Bezeichnung, den Web oder ähnliche Technologien zu benutzen. Deine Settings, können in deinem Gerät bei deinem Browser geändert werden.

Für den bestimmten Zweck, berechtigten Interessen beruhen darauf, mehr als auf den Inhalt. Du kannst mehr darüber in unseren Privaten und Cookie Politik lesen.